AZUR (GRS A)

导读

AZUR卫星(又称GRS A,即德国研究卫星-A)是德国首颗科学试验卫星,由德国联邦科学与研究部与NASA联合研制,1969年11月8日于美国范登堡基地发射。卫星重约72公斤,用于采集地球电离层与太阳辐射数据,开展近地空间辐射和磁场测量,1970年6月因遥测故障停止工作,是德国航天早期发展的标志性成果。

Basic Information
目录编号:
4221
目录名称:
AZUR (GRS A)
国际标识:
1969-097A
轨道中心:
EARTH
卫星名称:
AZUR (GRS A)
卫星全名:
--
卫星状态:
在轨 (已飞行20673 天)
发射日期:
1969-11-08 UTC
国别 :
德国 (DE)
星等 :
--
Orbit Information
数据来源 国际轨道数据 AOE轨道数据
星历时间 2026-06-15T05:47:23+0800
9小时前
查看轨道信息
2026-06-15T06:00:00+0800
9小时前
查看轨道信息
半长轴 6839.884km 6839.884km
偏心率 0.0216491 0.0216124
轨道倾角 102.661° 102.661°
近地点辐角 198.973° 198.952°
升交点赤经 307.546° 307.561°
平近点角 160.333° 208.748°
近地点 313.669km 313.92km
远地点 609.825km 609.574km
周期 93.828分钟 93.828分钟
每日圈数 15.34722 15.347219
Detailed Information
使用方式:
暂无
2D Orbit Map
3D Orbit Map
Orbit Altitude Analysis Chart
Orbit Inclination Analysis Chart
Orbit Comprehensive Analysis Chart
View Comprehensive Chart